FENGYUN 1C DEB, 31516

Orbit data source: Space-Track

FENGYUN 1C DEB, 31516 is space debris in SSO originally from a launch on Mon, 10 May 1999 UTC launched from the Taiyaun Space Center, China (TSC). Fengyun 1C debris stems from the Chinese weather satellite Fengyun-1C, which was intentionally destroyed by a Chinese anti-satellite missile in 2007. This event dramatically increased the amount of space debris, with thousands of trackable fragments posing hazards to satellites and human spaceflight. The Fengyun 1C debris cloud has become a focal point in discussions about space sustainability and the need for international regulations to prevent the creation of new debris.

Loading next visibility...
Identifier
31516, 1999-025BXF
Orbit
SSO
Country
Flag of CNCN / PRC
Related business
Manufacturer
Unknown
Mission
Spacecraft
Bus & Motor
Unknown
Mass
Unknown
Launch date (UTC)
1999-05-10 (27 years ago)
Launch vehicle
Unknown
Launch site
Taiyaun Space Center, China (TSC)
Object type
Payload
Rocket body
Debris
Shape & HBR
Unknown shape, 0.1 m
Radar Cross Section
Small (<0.1 m²)

Expand to show TLE details & history
Last TLE update: 7 hours ago

TLE from 7 hours ago
0 FENGYUN 1C DEB
1 31516U 99025BXF 26169.60463220  .00000465  00000-0  19123-3 0  9992
2 31516  98.8522 292.0934 0148998  54.8548 323.6797 14.25801802991696
Epoch: 2026-06-18T14:30Z
TLE epoch observation values (Epoch: 2026-06-18T14:30:40.222Z)
Latitude
17.28177°
Longitude
164.81791°
Altitude
722.422 km
Speed
7.54 km/s
True Right ascension
19h 17m 19s
True Declination
17° 11' 02"
Sunlit
Object was in full shadow at epoch
Visualization orbit readout
Latitude
Unknown
Longitude
Unknown
Altitude
Unknown
Speed
Unknown
Apparent Right ascension
Unknown
Apparent Declination
Unknown
Sunlit
N/A
Visualization observer readout
Local Sidereal Time
07:53:55
Azimuth
Unknown
Elevation
Unknown
Doppler factor
Unknown
Orbital elements
Apogee altitude
909.952 km
Perigee altitude
695.958 km
Semi-major axis
7,181.092 km
Eccentricity
0.0149
Inclination
98.8522°
RAAN
292.0934°
Arg. of periapsis
54.8548°
True anomaly
322.65307°
Mean anomaly
323.6797°
Eccentric anomaly
323.16793°
Mean motion
3.56662 °/min
Orbital period
100.94 mins
BSTAR
0.00019123
Loading maneuver chart data...
Computing Atmospheric mass density...
Loading historical data...
Loading historical data...
Loading historical data...
Loading historical data...
Loading historical data...
Loading historical data...
Loading historical data...

Documentation

Showing up to 5 results
|